Presque Isle, ME

11:50 PM EST on February 22, 2017 (GMT -0500)
Northern Maine Regional At Presque Isle

Weather History for KPQI - October, 2012

Change the Weather History Date:

Tuesday, October 2, 2012

  Actual Average Record
Temperature  
Mean Temperature 61 °F -  
Max Temperature 71 °F 60 °F 78 °F (2002)
Min Temperature 51 °F 41 °F 26 °F (1949)
Degree Days  
Heating Degree Days 4    
Growing Degree Days 11 (Base 50)    
Moisture  
Dew Point 46 °F    
Average Humidity 64    
Maximum Humidity 82    
Minimum Humidity 38    
Precipitation  
Precipitation 0.00 in - - ()
Sea Level Pressure  
Sea Level Pressure 29.80 in    
Wind  
Wind Speed 8 mph (WSW)    
Max Wind Speed 13 mph    
Max Gust Speed 18 mph    
Visibility 10 miles    
Events      
Averages and records for this station are not official NWS values.
T = Trace of Precipitation, MM = Missing Value Source: NWS Daily Summary

Daily Weather History Graph

Daily Weather History Graph

Search for Another Location

Airport or City:

Trip Planner

Search our weather history database for the weather conditions in past years. The results will help you decide how hot, cold, wet, or windy it might be!

Date:

Astronomy

Oct. 02, 2012 Rise Set
Actual Time 6:32 AM EDT 6:09 PM EDT
Civil Twilight 6:02 AM EDT 6:39 PM EDT
Nautical Twilight 5:27 AM EDT 7:14 PM EDT
Astronomical Twilight 4:51 AM EDT 7:49 PM EDT
Moon 7:06 PM EDT (10/2) 9:08 AM EDT (10/2)
Length of Visible Light 12h 36m
Length of Day
11h 36m
Waning Gibbous, 94% of the Moon is Illuminated
Oct 2
Waning Gibbous
Oct 8
Last Quarter
Oct 15
New
Oct 21
First Quarter
Oct 29
Full

Hourly Weather History & Observations

Time (EDT) Temp. Dew Point Humidity Pressure Visibility Wind Dir Wind Speed Gust Speed Precip Events Conditions
12:15 AM 51.8 °F 46.4 °F 82% 29.66 in 10.0 mi WSW 10.4 mph - N/A   Overcast
12:35 AM 51.8 °F 46.4 °F 82% 29.66 in 10.0 mi WSW 10.4 mph - N/A   Overcast
12:55 AM 51.8 °F 46.4 °F 82% 29.67 in 10.0 mi WSW 9.2 mph - N/A   Mostly Cloudy
1:15 AM 51.8 °F 46.4 °F 82% 29.68 in 10.0 mi WSW 8.1 mph - N/A   Scattered Clouds
1:35 AM 51.8 °F 46.4 °F 82% 29.68 in 10.0 mi WSW 9.2 mph - N/A   Mostly Cloudy
1:55 AM 51.8 °F 46.4 °F 82% 29.68 in 10.0 mi WSW 9.2 mph - N/A   Scattered Clouds
2:15 AM 51.8 °F 46.4 °F 82% 29.67 in 10.0 mi WSW 10.4 mph - N/A   Clear
2:35 AM 51.8 °F 46.4 °F 82% 29.68 in 10.0 mi WSW 8.1 mph - N/A   Clear
2:55 AM 51.8 °F 46.4 °F 82% 29.68 in 10.0 mi WSW 10.4 mph - N/A   Clear
3:15 AM 51.8 °F 46.4 °F 82% 29.70 in 10.0 mi WSW 10.4 mph - N/A   Clear
3:35 AM 51.8 °F 46.4 °F 82% 29.71 in 10.0 mi WSW 8.1 mph - N/A   Clear
3:55 AM 51.8 °F 46.4 °F 82% 29.71 in 10.0 mi WSW 8.1 mph - N/A   Scattered Clouds
4:15 AM 51.8 °F 46.4 °F 82% 29.71 in 10.0 mi WSW 5.8 mph - N/A   Partly Cloudy
4:35 AM 51.8 °F 46.4 °F 82% 29.70 in 10.0 mi SW 8.1 mph - N/A   Clear
4:55 AM 51.8 °F 46.4 °F 82% 29.71 in 10.0 mi SW 9.2 mph - N/A   Clear
5:15 AM 51.8 °F 46.4 °F 82% 29.71 in 10.0 mi SW 6.9 mph - N/A   Clear
5:35 AM 51.8 °F 46.4 °F 82% 29.71 in 10.0 mi SW 8.1 mph - N/A   Clear
5:55 AM 51.8 °F 46.4 °F 82% 29.72 in 10.0 mi SW 6.9 mph - N/A   Clear
6:15 AM 51.8 °F 46.4 °F 82% 29.73 in 10.0 mi SW 6.9 mph - N/A   Clear
6:35 AM 51.8 °F 46.4 °F 82% 29.75 in 10.0 mi SW 9.2 mph - N/A   Clear
6:55 AM 51.8 °F 46.4 °F 82% 29.75 in 10.0 mi SW 6.9 mph - N/A   Clear
7:15 AM 51.8 °F 46.4 °F 82% 29.76 in 10.0 mi SW 6.9 mph - N/A   Clear
7:35 AM 53.6 °F 46.4 °F 77% 29.78 in 10.0 mi SW 6.9 mph - N/A   Clear
7:55 AM 53.6 °F 46.4 °F 77% 29.78 in 10.0 mi SW 6.9 mph - N/A   Clear
8:15 AM 55.4 °F 48.2 °F 77% 29.79 in 10.0 mi SSW 4.6 mph - N/A   Clear
8:55 AM 57.2 °F 48.2 °F 72% 29.81 in 10.0 mi West 8.1 mph - N/A   Clear
9:15 AM 57.2 °F 48.2 °F 72% 29.82 in 10.0 mi West 8.1 mph 18.4 mph N/A   Clear
9:35 AM 59.0 °F 46.4 °F 63% 29.83 in 10.0 mi West 10.4 mph - N/A   Clear
9:55 AM 60.8 °F 48.2 °F 63% 29.83 in 10.0 mi West 10.4 mph - N/A   Clear
10:15 AM 60.8 °F 48.2 °F 63% 29.83 in 10.0 mi WNW 9.2 mph - N/A   Clear
10:35 AM 62.6 °F 48.2 °F 59% - 10.0 mi West 10.4 mph - N/A   Clear
10:55 AM 62.6 °F 48.2 °F 59% - 10.0 mi West 10.4 mph - N/A   Clear
11:15 AM 64.4 °F 48.2 °F 56% 29.84 in 10.0 mi West 10.4 mph - N/A   Clear
11:35 AM 64.4 °F 46.4 °F 52% 29.84 in 10.0 mi West 10.4 mph 16.1 mph N/A   Clear
11:55 AM 66.2 °F 46.4 °F 49% 29.84 in 10.0 mi WSW 8.1 mph - N/A   Clear
12:15 PM 66.2 °F 46.4 °F 49% 29.83 in 10.0 mi West 6.9 mph - N/A   Clear
12:35 PM 68.0 °F 46.4 °F 46% 29.83 in 10.0 mi West 6.9 mph - N/A   Clear
12:55 PM 69.8 °F 44.6 °F 40% 29.83 in 10.0 mi WNW 12.7 mph - N/A   Clear
1:15 PM 69.8 °F 44.6 °F 40% 29.84 in 10.0 mi West 11.5 mph - N/A   Clear
1:35 PM 69.8 °F 44.6 °F 40% 29.83 in 10.0 mi WNW 9.2 mph - N/A   Clear
1:55 PM 69.8 °F 44.6 °F 40% 29.83 in 10.0 mi West 10.4 mph - N/A   Clear
2:15 PM 69.8 °F 44.6 °F 40% 29.83 in 10.0 mi West 9.2 mph - N/A   Clear
2:35 PM 69.8 °F 44.6 °F 40% - 10.0 mi West 4.6 mph 16.1 mph N/A   Clear
2:55 PM 71.6 °F 44.6 °F 38% 29.82 in 10.0 mi West 5.8 mph - N/A   Clear
3:15 PM 71.6 °F 46.4 °F 41% 29.83 in 10.0 mi West 9.2 mph - N/A   Clear
3:35 PM 71.6 °F 46.4 °F 41% 29.83 in 10.0 mi West 12.7 mph - N/A   Clear
3:55 PM 71.6 °F 46.4 °F 41% - 10.0 mi West 9.2 mph - N/A   Clear
4:15 PM 71.6 °F 46.4 °F 41% 29.84 in 10.0 mi West 8.1 mph - N/A   Clear
4:35 PM 69.8 °F 46.4 °F 43% 29.84 in 10.0 mi WNW 5.8 mph - N/A   Clear
4:55 PM 69.8 °F 46.4 °F 43% 29.84 in 10.0 mi West 9.2 mph - N/A   Clear
5:15 PM 69.8 °F 46.4 °F 43% - 10.0 mi West 5.8 mph - N/A   Clear
5:35 PM 68.0 °F 46.4 °F 46% 29.85 in 10.0 mi WSW 5.8 mph - N/A   Clear
5:55 PM 66.2 °F 46.4 °F 49% - 10.0 mi West 4.6 mph - N/A   Clear
6:15 PM 64.4 °F 48.2 °F 56% - 10.0 mi WSW 5.8 mph - N/A   Clear
6:35 PM 62.6 °F 46.4 °F 55% - 10.0 mi WSW 5.8 mph - N/A   Clear
6:55 PM 62.6 °F 46.4 °F 55% 29.88 in 10.0 mi WSW 4.6 mph - N/A   Clear
7:15 PM 60.8 °F 46.4 °F 59% - 10.0 mi West 6.9 mph - N/A   Partly Cloudy
7:35 PM 59.0 °F 48.2 °F 67% 29.89 in 10.0 mi West 8.1 mph - N/A   Scattered Clouds
8:35 PM 60.8 °F 46.4 °F 59% 29.90 in 10.0 mi West 8.1 mph - N/A   Mostly Cloudy
8:55 PM 60.8 °F 46.4 °F 59% 29.90 in 10.0 mi WSW 6.9 mph - N/A   Mostly Cloudy
9:15 PM 59.0 °F 46.4 °F 63% - 10.0 mi West 5.8 mph - N/A   Scattered Clouds
9:35 PM 59.0 °F 46.4 °F 63% 29.91 in 10.0 mi West 9.2 mph - N/A   Partly Cloudy
9:55 PM 59.0 °F 46.4 °F 63% 29.92 in 10.0 mi West 6.9 mph - N/A   Clear
10:15 PM 57.2 °F 46.4 °F 67% 29.92 in 10.0 mi West 8.1 mph - N/A   Clear
10:35 PM 57.2 °F 46.4 °F 67% 29.92 in 10.0 mi West 5.8 mph - N/A   Clear
10:55 PM 55.4 °F 46.4 °F 72% 29.93 in 10.0 mi Calm Calm - N/A   Clear
11:15 PM 53.6 °F 46.4 °F 77% - 10.0 mi Calm Calm - N/A   Clear
11:35 PM 51.8 °F 44.6 °F 76% 29.93 in 10.0 mi NE 3.5 mph - N/A   Clear
11:55 PM 51.8 °F 44.6 °F 76% 29.93 in 10.0 mi Calm Calm - N/A   Clear